When you browse on this site, cookies collect data to enhance your experience and personalize the content and advertising you see.
Visit our Privacy Policy to learn more. By continuing to use the site, you agree to this use of cookies and data.
  • In Czech Republic
  • List of Countries
  • For 7 days
  • Water Temperature
  • Weather Map
  • Weather Widgets
  • user-avatar
    Login

    Hourly Weather Mersrags

    Today, 5 June, Friday

    Time Temperature Precipitation Wind Pressure Humidity
    00:00 +10°C° 0 mm 3 mps 749 mmHg 96%
    01:00 +10°C° 0 mm 2 mps 749 mmHg 97%
    02:00 +10°C° 0 mm 2 mps 749 mmHg 97%
    03:00 +10°C° 0 mm 2 mps 748 mmHg 96%
    04:00 +11°C° 0 mm 1 mps 748 mmHg 95%
    05:00 +11°C° 0 mm 1 mps 748 mmHg 95%
    06:00 +13°C° 0 mm 1 mps 748 mmHg 87%
    07:00 +14°C° 0 mm 2 mps 748 mmHg 80%
    08:00 +16°C° 0 mm 2 mps 748 mmHg 73%
    09:00 +17°C° 0 mm 3 mps 748 mmHg 68%
    10:00 +18°C° 0 mm 3 mps 748 mmHg 63%
    11:00 +19°C° 0 mm 4 mps 748 mmHg 58%
    12:00 +20°C° 0 mm 4 mps 748 mmHg 56%
    13:00 +20°C° 0 mm 5 mps 748 mmHg 54%
    14:00 +21°C° 0 mm 5 mps 748 mmHg 52%
    15:00 +21°C° 0 mm 5 mps 747 mmHg 53%
    16:00 +20°C° 0 mm 5 mps 747 mmHg 53%
    17:00 +20°C° 0 mm 5 mps 747 mmHg 54%
    18:00 +20°C° 0 mm 6 mps 747 mmHg 59%
    19:00 +19°C° 0 mm 6 mps 746 mmHg 63%
    20:00 +17°C° 0 mm 6 mps 746 mmHg 67%
    21:00 +16°C° 0.2 mm 6 mps 745 mmHg 73%
    22:00 +15°C° 0.2 mm 7 mps 745 mmHg 79%
    23:00 +14°C° 0.2 mm 7 mps 745 mmHg 85%

    Tomorrow, 6 June, Saturday

    Time Temperature Precipitation Wind Pressure Humidity
    00:00 +14°C° 0.6 mm 7 mps 745 mmHg 88%
    01:00 +14°C° 0.6 mm 6 mps 745 mmHg 91%
    02:00 +14°C° 0.6 mm 6 mps 745 mmHg 94%
    03:00 +13°C° 0 mm 5 mps 745 mmHg 94%
    04:00 +12°C° 0 mm 5 mps 746 mmHg 95%
    05:00 +12°C° 0 mm 5 mps 746 mmHg 95%
    06:00 +13°C° 0 mm 5 mps 746 mmHg 91%
    07:00 +14°C° 0 mm 5 mps 746 mmHg 86%
    08:00 +15°C° 0 mm 6 mps 747 mmHg 82%
    09:00 +14°C° 0.4 mm 6 mps 747 mmHg 83%
    10:00 +14°C° 0.4 mm 7 mps 747 mmHg 85%
    11:00 +13°C° 0.4 mm 8 mps 747 mmHg 86%
    12:00 +13°C° 0.1 mm 8 mps 748 mmHg 76%
    13:00 +15°C° 0.1 mm 9 mps 749 mmHg 66%
    14:00 +16°C° 0.1 mm 9 mps 750 mmHg 55%
    15:00 +16°C° 0 mm 9 mps 750 mmHg 53%
    16:00 +16°C° 0 mm 8 mps 751 mmHg 50%
    17:00 +16°C° 0 mm 8 mps 752 mmHg 48%
    18:00 +15°C° 0 mm 7 mps 752 mmHg 53%
    19:00 +14°C° 0 mm 6 mps 752 mmHg 59%
    20:00 +14°C° 0 mm 5 mps 753 mmHg 65%
    21:00 +13°C° 0 mm 5 mps 753 mmHg 70%
    22:00 +12°C° 0 mm 5 mps 754 mmHg 74%
    23:00 +10°C° 0 mm 5 mps 754 mmHg 79%

    Day after tomorrow, 7 June, Sunday

    Time Temperature Precipitation Wind Pressure Humidity
    00:00 +10°C° 0 mm 5 mps 754 mmHg 79%
    01:00 +9°C° 0 mm 6 mps 755 mmHg 80%
    02:00 +9°C° 0 mm 6 mps 755 mmHg 81%
    03:00 +10°C° 0 mm 5 mps 755 mmHg 81%
    04:00 +10°C° 0 mm 5 mps 756 mmHg 80%
    05:00 +12°C° 0 mm 4 mps 756 mmHg 80%
    06:00 +13°C° 0 mm 4 mps 756 mmHg 78%
    07:00 +14°C° 0 mm 5 mps 756 mmHg 76%
    08:00 +15°C° 0 mm 5 mps 757 mmHg 74%
    09:00 +15°C° 0 mm 5 mps 757 mmHg 76%
    10:00 +15°C° 0 mm 4 mps 757 mmHg 77%
    11:00 +15°C° 0 mm 4 mps 758 mmHg 78%
    12:00 +16°C° 0.3 mm 3 mps 758 mmHg 81%
    13:00 +16°C° 0.3 mm 3 mps 757 mmHg 85%
    14:00 +16°C° 0.3 mm 2 mps 757 mmHg 88%
    15:00 +14°C° 1.9 mm 3 mps 757 mmHg 92%
    16:00 +13°C° 1.9 mm 3 mps 757 mmHg 95%
    17:00 +12°C° 1.9 mm 4 mps 756 mmHg 98%
    18:00 +12°C° 1.5 mm 4 mps 756 mmHg 97%
    19:00 +12°C° 1.5 mm 3 mps 756 mmHg 97%
    20:00 +12°C° 1.5 mm 3 mps 756 mmHg 97%
    21:00 +11°C° 0 mm 3 mps 757 mmHg 97%
    22:00 +12°C° 0 mm 2 mps 757 mmHg 97%
    23:00 +10°C° 0 mm 2 mps 758 mmHg 97%

    8 June, Monday

    Time Temperature Precipitation Wind Pressure Humidity
    00:00 +12°C° 0 mm 2 mps 758 mmHg 97%
    01:00 +12°C° 0 mm 2 mps 758 mmHg 97%
    02:00 +12°C° 0 mm 2 mps 758 mmHg 96%
    03:00 +12°C° 0 mm 2 mps 759 mmHg 96%
    04:00 +12°C° 0 mm 1 mps 759 mmHg 96%
    05:00 +12°C° 0 mm 1 mps 759 mmHg 96%
    06:00 +12°C° 0 mm 1 mps 759 mmHg 95%
    07:00 +13°C° 0 mm 2 mps 760 mmHg 94%
    08:00 +14°C° 0 mm 2 mps 760 mmHg 93%
    09:00 +14°C° 0 mm 3 mps 760 mmHg 88%
    10:00 +14°C° 0 mm 3 mps 760 mmHg 84%
    11:00 +16°C° 0 mm 3 mps 761 mmHg 79%
    12:00 +16°C° 0.3 mm 3 mps 760 mmHg 84%
    13:00 +14°C° 0.3 mm 3 mps 760 mmHg 89%
    14:00 +13°C° 0.3 mm 3 mps 760 mmHg 94%
    15:00 +13°C° 0.4 mm 4 mps 760 mmHg 93%
    16:00 +13°C° 0.4 mm 5 mps 760 mmHg 92%
    17:00 +14°C° 0.4 mm 6 mps 760 mmHg 91%
    18:00 +13°C° 0.8 mm 5 mps 760 mmHg 92%
    19:00 +13°C° 0.8 mm 5 mps 759 mmHg 93%
    20:00 +13°C° 0.8 mm 5 mps 759 mmHg 93%
    21:00 +13°C° 0.2 mm 5 mps 759 mmHg 94%
    22:00 +13°C° 0.2 mm 5 mps 759 mmHg 95%
    23:00 +13°C° 0.2 mm 5 mps 759 mmHg 96%

    9 June, Tuesday

    Time Temperature Precipitation Wind Pressure Humidity
    00:00 +13°C° 0.2 mm 4 mps 759 mmHg 97%
    01:00 +14°C° 0.2 mm 3 mps 759 mmHg 98%
    02:00 +14°C° 0.2 mm 3 mps 759 mmHg 99%
    03:00 +14°C° 0.1 mm 3 mps 759 mmHg 99%
    04:00 +14°C° 0.1 mm 3 mps 759 mmHg 99%
    05:00 +14°C° 0.1 mm 3 mps 759 mmHg 99%
    06:00 +16°C° 0.2 mm 3 mps 759 mmHg 98%
    07:00 +16°C° 0.2 mm 3 mps 759 mmHg 98%
    08:00 +17°C° 0.2 mm 3 mps 759 mmHg 97%
    09:00 +18°C° 0 mm 2 mps 759 mmHg 93%
    10:00 +19°C° 0 mm 2 mps 759 mmHg 88%
    11:00 +21°C° 0 mm 2 mps 759 mmHg 83%
    12:00 +20°C° 0.5 mm 2 mps 759 mmHg 85%
    13:00 +20°C° 0.5 mm 2 mps 759 mmHg 86%
    14:00 +20°C° 0.5 mm 2 mps 759 mmHg 88%
    15:00 +20°C° 0.1 mm 3 mps 759 mmHg 88%
    16:00 +19°C° 0.1 mm 3 mps 759 mmHg 88%
    17:00 +19°C° 0.1 mm 3 mps 759 mmHg 89%
    18:00 +19°C° 0.6 mm 3 mps 759 mmHg 91%
    19:00 +18°C° 0.6 mm 3 mps 759 mmHg 92%
    20:00 +17°C° 0.6 mm 3 mps 759 mmHg 94%
    21:00 +18°C° 0.2 mm 3 mps 759 mmHg 93%
    22:00 +18°C° 0.2 mm 3 mps 759 mmHg 93%
    23:00 +18°C° 0.2 mm 3 mps 759 mmHg 93%

    10 June, Wednesday

    Time Temperature Precipitation Wind Pressure Humidity
    00:00 +18°C° 0.4 mm 2 mps 759 mmHg 93%
    01:00 +17°C° 0.4 mm 2 mps 759 mmHg 93%
    02:00 +18°C° 0.4 mm 1 mps 759 mmHg 94%
    03:00 +18°C° 0 mm 1 mps 759 mmHg 94%
    04:00 +18°C° 0 mm 1 mps 759 mmHg 94%
    05:00 +18°C° 0 mm 1 mps 759 mmHg 95%
    06:00 +20°C° 0 mm 1 mps 759 mmHg 92%
    07:00 +21°C° 0 mm 1 mps 759 mmHg 89%
    08:00 +21°C° 0 mm 2 mps 759 mmHg 86%
    09:00 +23°C° 0.1 mm 2 mps 759 mmHg 81%
    10:00 +25°C° 0.1 mm 2 mps 759 mmHg 75%
    11:00 +26°C° 0.1 mm 2 mps 760 mmHg 70%
    12:00 +26°C° 0.3 mm 2 mps 760 mmHg 72%
    13:00 +26°C° 0.3 mm 3 mps 760 mmHg 74%
    14:00 +25°C° 0.3 mm 3 mps 760 mmHg 76%
    15:00 +24°C° 1 mm 3 mps 759 mmHg 79%
    16:00 +24°C° 1 mm 2 mps 759 mmHg 83%
    17:00 +23°C° 1 mm 2 mps 759 mmHg 87%
    18:00 +21°C° 0.7 mm 2 mps 760 mmHg 89%
    19:00 +21°C° 0.7 mm 2 mps 760 mmHg 90%
    20:00 +20°C° 0.7 mm 3 mps 760 mmHg 92%
    21:00 +20°C° 0.1 mm 2 mps 760 mmHg 92%
    22:00 +19°C° 0.1 mm 2 mps 760 mmHg 92%
    23:00 +18°C° 0.1 mm 2 mps 760 mmHg 93%
    Show more